OCN3MW EDDF-LDZA

Flight info

Callsign OCN3MW
Flight time 1h 25m
Altitude 35000
Route CINDY8S/18 CINDY Z74 LAMPU DCT NOMBO Y161 MAH DCT LATLO DCT OBEDI DCT KLAGY DCT LULUD
Aircraft A320/M-SDE3FGHIRWY/LB1

Departure

Time 2026-05-06 14:55
Airport Frankfurt Main Airport (EDDF)

Arrival

Time 2026-05-06 16:20
Airport Zagreb Franjo Tuđman International Airport (LDZA)
Time Latitude Longitude Altitude Speed Heading
2026-05-06 14:26 50.04390 8.56168 362 ft 0 kts 155°
2026-05-06 14:42 50.04393 8.56166 356 ft 3 kts 155°
2026-05-06 14:42 50.04407 8.56156 363 ft 3 kts 155°
2026-05-06 14:43 50.04434 8.56136 357 ft 3 kts 165°
2026-05-06 14:43 50.04449 8.56133 363 ft 3 kts 211°
2026-05-06 14:43 50.04457 8.56142 358 ft 0 kts 251°
2026-05-06 14:48 50.04456 8.56138 361 ft 3 kts 251°
2026-05-06 14:48 50.04427 8.56046 363 ft 12 kts 221°
2026-05-06 14:48 50.04324 8.56068 357 ft 17 kts 157°
2026-05-06 14:49 50.04275 8.56208 359 ft 13 kts 125°
2026-05-06 14:49 50.04210 8.56257 360 ft 8 kts 158°
2026-05-06 14:49 50.04163 8.56287 359 ft 6 kts 161°
2026-05-06 14:49 50.04109 8.56198 359 ft 21 kts 249°
2026-05-06 14:50 50.04058 8.55987 355 ft 20 kts 250°
2026-05-06 14:50 50.04009 8.55780 355 ft 23 kts 249°
2026-05-06 14:50 50.03952 8.55553 351 ft 21 kts 250°
2026-05-06 14:50 50.03899 8.55356 359 ft 18 kts 253°
2026-05-06 14:51 50.03864 8.55181 356 ft 15 kts 251°
2026-05-06 14:51 50.03827 8.55021 351 ft 19 kts 251°
2026-05-06 14:51 50.03771 8.54788 350 ft 23 kts 250°
2026-05-06 14:51 50.03715 8.54561 349 ft 22 kts 250°
2026-05-06 14:52 50.03664 8.54340 350 ft 23 kts 249°
2026-05-06 14:52 50.03599 8.54070 349 ft 27 kts 249°
2026-05-06 14:52 50.03537 8.53815 338 ft 24 kts 249°
2026-05-06 14:52 50.03481 8.53580 338 ft 24 kts 249°
2026-05-06 14:53 50.03414 8.53299 335 ft 29 kts 250°
2026-05-06 14:53 50.03342 8.53000 333 ft 29 kts 249°
2026-05-06 14:53 50.03278 8.52729 334 ft 24 kts 251°
2026-05-06 14:53 50.03253 8.52577 332 ft 6 kts 210°
2026-05-06 14:54 50.03237 8.52584 335 ft 4 kts 159°
2026-05-06 14:54 50.03034 8.52595 335 ft 64 kts 181°
2026-05-06 14:54 50.02378 8.52603 335 ft 122 kts 179°
2026-05-06 14:54 50.01365 8.52617 332 ft 167 kts 180°
2026-05-06 14:55 50.00139 8.52632 757 ft 179 kts 182°
2026-05-06 14:55 49.98876 8.52657 1474 ft 183 kts 183°
2026-05-06 14:55 49.97582 8.52925 1923 ft 197 kts 166°
2026-05-06 14:55 49.96319 8.53989 2303 ft 219 kts 141°
2026-05-06 14:56 49.95348 8.55971 2709 ft 245 kts 122°
2026-05-06 14:56 49.94510 8.58292 3575 ft 246 kts 120°
2026-05-06 14:56 49.93970 8.60841 3895 ft 258 kts 97°
2026-05-06 14:56 49.93897 8.63756 4023 ft 277 kts 93°
2026-05-06 14:57 49.93748 8.66742 4889 ft 279 kts 104°
2026-05-06 14:57 49.93043 8.69526 5810 ft 278 kts 125°
2026-05-06 14:57 49.91773 8.71747 6698 ft 276 kts 145°
2026-05-06 14:57 49.90207 8.73484 7559 ft 278 kts 148°
2026-05-06 14:58 49.88712 8.75413 8399 ft 284 kts 135°
2026-05-06 14:58 49.87539 8.77924 9246 ft 291 kts 121°
2026-05-06 14:58 49.86546 8.80687 10020 ft 297 kts 121°
2026-05-06 14:58 49.85500 8.83597 10307 ft 321 kts 121°
2026-05-06 14:59 49.84377 8.86698 10693 ft 337 kts 121°
2026-05-06 14:59 49.83218 8.89898 11393 ft 343 kts 121°
2026-05-06 14:59 49.82041 8.93145 12136 ft 347 kts 121°
2026-05-06 14:59 49.80849 8.96421 12878 ft 351 kts 121°
2026-05-06 15:00 49.79647 8.99721 13610 ft 354 kts 121°
2026-05-06 15:00 49.78446 9.03015 14259 ft 357 kts 121°
2026-05-06 15:00 49.77215 9.06388 14923 ft 360 kts 122°
2026-05-06 15:00 49.76146 9.09921 15583 ft 366 kts 111°
2026-05-06 15:01 49.75467 9.13728 16226 ft 370 kts 106°
2026-05-06 15:01 49.74638 9.17495 16858 ft 371 kts 116°
2026-05-06 15:01 49.73359 9.20950 17492 ft 371 kts 128°
2026-05-06 15:01 49.71711 9.24035 18121 ft 373 kts 133°
2026-05-06 15:02 49.69997 9.27054 18675 ft 375 kts 133°
2026-05-06 15:02 49.68267 9.30099 19224 ft 378 kts 133°
2026-05-06 15:02 49.66525 9.33159 19772 ft 380 kts 133°
2026-05-06 15:02 49.64772 9.36239 20305 ft 383 kts 134°
2026-05-06 15:03 49.63001 9.39325 20827 ft 385 kts 136°
2026-05-06 15:03 49.61004 9.42068 21331 ft 385 kts 146°
2026-05-06 15:03 49.58776 9.44253 21835 ft 386 kts 152°
2026-05-06 15:03 49.56428 9.46394 22361 ft 388 kts 152°
2026-05-06 15:04 49.54131 9.48488 22848 ft 391 kts 152°
2026-05-06 15:04 49.51783 9.50637 23329 ft 394 kts 152°
2026-05-06 15:04 49.49390 9.52819 23751 ft 396 kts 152°
2026-05-06 15:04 49.47006 9.54991 24161 ft 398 kts 152°
2026-05-06 15:05 49.44648 9.57133 24567 ft 400 kts 152°
2026-05-06 15:05 49.42246 9.59314 24981 ft 402 kts 152°
2026-05-06 15:05 49.39831 9.61508 25389 ft 404 kts 152°
2026-05-06 15:05 49.37406 9.63711 25796 ft 405 kts 152°
2026-05-06 15:06 49.34991 9.65953 26182 ft 408 kts 149°
2026-05-06 15:06 49.32763 9.68693 26577 ft 414 kts 139°
2026-05-06 15:06 49.30718 9.71834 26974 ft 416 kts 139°
2026-05-06 15:06 49.28669 9.74975 27362 ft 418 kts 139°
2026-05-06 15:07 49.26609 9.78116 27753 ft 419 kts 139°
2026-05-06 15:07 49.24536 9.81269 28148 ft 421 kts 139°
2026-05-06 15:07 49.22455 9.84436 28530 ft 422 kts 139°
2026-05-06 15:07 49.20370 9.87607 28906 ft 424 kts 139°
2026-05-06 15:08 49.18274 9.90792 29265 ft 425 kts 140°
2026-05-06 15:08 49.16169 9.93982 29598 ft 427 kts 140°
2026-05-06 15:08 49.14052 9.97184 29922 ft 429 kts 140°
2026-05-06 15:08 49.11927 10.00398 30167 ft 431 kts 140°
2026-05-06 15:09 49.09819 10.03585 30397 ft 433 kts 140°
2026-05-06 15:09 49.07642 10.06868 30639 ft 436 kts 141°
2026-05-06 15:09 49.05476 10.10115 30865 ft 438 kts 141°
2026-05-06 15:09 49.03294 10.13282 31092 ft 439 kts 142°
2026-05-06 15:10 49.01057 10.16443 31413 ft 438 kts 143°
2026-05-06 15:10 48.98812 10.19574 31751 ft 438 kts 143°
2026-05-06 15:10 48.96562 10.22701 32089 ft 438 kts 144°
2026-05-06 15:10 48.94317 10.25830 32470 ft 438 kts 144°
2026-05-06 15:11 48.92080 10.28967 32833 ft 437 kts 144°
2026-05-06 15:11 48.89854 10.32104 33183 ft 437 kts 144°
2026-05-06 15:11 48.87630 10.35243 33530 ft 436 kts 144°
2026-05-06 15:11 48.85412 10.38375 33863 ft 435 kts 144°
2026-05-06 15:12 48.83192 10.41505 34147 ft 435 kts 144°
2026-05-06 15:12 48.81013 10.44705 34380 ft 437 kts 142°
2026-05-06 15:12 48.78893 10.48020 34611 ft 439 kts 140°
2026-05-06 15:12 48.76805 10.51414 34758 ft 440 kts 140°
2026-05-06 15:13 48.74745 10.54827 34801 ft 436 kts 140°
2026-05-06 15:13 48.70647 10.61566 34798 ft 434 kts 140°
2026-05-06 15:14 48.66501 10.68189 34795 ft 433 kts 141°
2026-05-06 15:14 48.62331 10.74771 34783 ft 433 kts 141°
2026-05-06 15:15 48.58192 10.81300 34782 ft 433 kts 141°
2026-05-06 15:15 48.54051 10.87905 34778 ft 433 kts 141°
2026-05-06 15:16 48.49914 10.94545 34780 ft 434 kts 141°
2026-05-06 15:16 48.45762 11.01132 34767 ft 433 kts 141°
2026-05-06 15:17 48.41564 11.07645 34764 ft 433 kts 142°
2026-05-06 15:17 48.37363 11.14139 34756 ft 433 kts 142°
2026-05-06 15:18 48.33162 11.20635 34755 ft 433 kts 142°
2026-05-06 15:18 48.28965 11.27123 34775 ft 433 kts 142°
2026-05-06 15:19 48.26313 11.31630 34775 ft 440 kts 133°
2026-05-06 15:19 48.23260 11.39596 34773 ft 447 kts 126°
2026-05-06 15:20 48.20182 11.47670 34769 ft 446 kts 128°
2026-05-06 15:20 48.17085 11.55649 34760 ft 446 kts 127°
2026-05-06 15:21 48.13996 11.63703 34735 ft 446 kts 127°
2026-05-06 15:21 48.10915 11.71783 34729 ft 447 kts 127°
2026-05-06 15:22 48.07825 11.79863 34717 ft 448 kts 127°
2026-05-06 15:22 48.04718 11.87937 34703 ft 448 kts 127°
2026-05-06 15:23 48.01599 11.96026 34688 ft 449 kts 128°
2026-05-06 15:23 47.98469 12.04105 34685 ft 450 kts 128°
2026-05-06 15:24 47.95337 12.12189 34688 ft 450 kts 128°
2026-05-06 15:24 47.92197 12.20273 34685 ft 450 kts 128°
2026-05-06 15:25 47.89040 12.28354 34680 ft 451 kts 128°
2026-05-06 15:25 47.85896 12.36384 34682 ft 451 kts 128°
2026-05-06 15:26 47.82734 12.44452 34684 ft 451 kts 128°
2026-05-06 15:26 47.79560 12.52507 34685 ft 451 kts 128°
2026-05-06 15:27 47.76387 12.60549 34697 ft 451 kts 128°
2026-05-06 15:27 47.73201 12.68584 34696 ft 450 kts 129°
2026-05-06 15:28 47.70008 12.76574 34696 ft 450 kts 129°
2026-05-06 15:28 47.66972 12.82767 34700 ft 435 kts 142°
2026-05-06 15:29 47.62707 12.89088 34701 ft 433 kts 143°
2026-05-06 15:29 47.58469 12.95338 34702 ft 432 kts 143°
2026-05-06 15:30 47.54181 13.01667 34706 ft 432 kts 143°
2026-05-06 15:30 47.49953 13.07901 34715 ft 432 kts 143°
2026-05-06 15:31 47.45689 13.14152 34723 ft 431 kts 143°
2026-05-06 15:31 47.41425 13.20390 34739 ft 432 kts 143°
2026-05-06 15:32 47.35009 13.29736 34746 ft 431 kts 143°
2026-05-06 15:32 47.30936 13.36321 34751 ft 438 kts 136°
2026-05-06 15:33 47.27097 13.43324 34767 ft 440 kts 136°
2026-05-06 15:33 47.23244 13.50323 34782 ft 440 kts 136°
2026-05-06 15:34 47.19373 13.57329 34792 ft 441 kts 136°
2026-05-06 15:34 47.15528 13.64275 34809 ft 441 kts 136°
2026-05-06 15:35 47.11641 13.71286 34818 ft 443 kts 136°
2026-05-06 15:35 47.07738 13.78300 34827 ft 443 kts 136°
2026-05-06 15:36 47.03826 13.85313 34840 ft 444 kts 136°
2026-05-06 15:36 46.99906 13.92312 34841 ft 444 kts 136°
2026-05-06 15:37 46.95978 13.99305 34838 ft 445 kts 136°
2026-05-06 15:37 46.92045 14.06302 34845 ft 445 kts 136°
2026-05-06 15:38 46.88128 14.13258 34845 ft 446 kts 136°
2026-05-06 15:38 46.84187 14.20250 34845 ft 446 kts 136°
2026-05-06 15:39 46.80231 14.27220 34841 ft 445 kts 136°
2026-05-06 15:39 46.76270 14.34169 34867 ft 445 kts 135°
2026-05-06 15:40 46.72312 14.41116 34861 ft 445 kts 135°
2026-05-06 15:40 46.68364 14.48042 34862 ft 444 kts 135°
2026-05-06 15:41 46.64417 14.54940 34867 ft 443 kts 135°
2026-05-06 15:41 46.60469 14.61825 34873 ft 442 kts 135°
2026-05-06 15:42 46.56527 14.68689 34879 ft 442 kts 135°
2026-05-06 15:42 46.52578 14.75520 34883 ft 441 kts 135°
2026-05-06 15:43 46.48315 14.81801 34887 ft 437 kts 142°
2026-05-06 15:43 46.43879 14.87885 34872 ft 440 kts 142°
2026-05-06 15:44 46.39415 14.93991 34845 ft 440 kts 142°
2026-05-06 15:44 46.37194 14.97028 34328 ft 438 kts 142°
2026-05-06 15:44 46.34975 15.00056 33697 ft 437 kts 142°
2026-05-06 15:45 46.32803 15.03020 33154 ft 433 kts 142°
2026-05-06 15:45 46.30628 15.05986 32610 ft 430 kts 142°
2026-05-06 15:45 46.28452 15.08949 32075 ft 426 kts 142°
2026-05-06 15:45 46.26272 15.11914 31547 ft 423 kts 142°
2026-05-06 15:46 46.24165 15.14773 31031 ft 420 kts 142°
2026-05-06 15:46 46.22042 15.17652 30527 ft 417 kts 142°
2026-05-06 15:46 46.19934 15.20511 30037 ft 414 kts 142°
2026-05-06 15:46 46.17841 15.23343 29482 ft 411 kts 142°
2026-05-06 15:47 46.15763 15.26151 28947 ft 407 kts 142°
2026-05-06 15:47 46.13702 15.28927 28427 ft 404 kts 142°
2026-05-06 15:47 46.11657 15.31674 27925 ft 400 kts 142°
2026-05-06 15:47 46.09632 15.34396 27421 ft 396 kts 142°
2026-05-06 15:48 46.07626 15.37097 26975 ft 393 kts 142°
2026-05-06 15:48 46.05644 15.39767 26497 ft 389 kts 142°
2026-05-06 15:48 46.03674 15.42414 26011 ft 386 kts 142°
2026-05-06 15:48 46.01719 15.45034 25544 ft 383 kts 142°
2026-05-06 15:49 45.99787 15.47622 24859 ft 376 kts 142°
2026-05-06 15:49 45.97884 15.50170 24089 ft 372 kts 142°
2026-05-06 15:49 45.96005 15.52688 23325 ft 367 kts 142°
2026-05-06 15:49 45.94152 15.55168 22486 ft 362 kts 142°
2026-05-06 15:50 45.92315 15.57623 21691 ft 358 kts 142°
2026-05-06 15:50 45.90500 15.60042 20913 ft 354 kts 142°
2026-05-06 15:50 45.88698 15.62438 20152 ft 351 kts 142°
2026-05-06 15:50 45.86919 15.64799 19419 ft 347 kts 142°
2026-05-06 15:51 45.85155 15.67141 18702 ft 344 kts 142°
2026-05-06 15:51 45.83411 15.69469 17983 ft 341 kts 141°
2026-05-06 15:51 45.81693 15.71785 17208 ft 337 kts 141°
2026-05-06 15:51 45.79997 15.74079 16493 ft 334 kts 141°
2026-05-06 15:52 45.78343 15.76321 15810 ft 330 kts 141°
2026-05-06 15:52 45.76682 15.78570 15141 ft 326 kts 141°
2026-05-06 15:52 45.75142 15.80950 14487 ft 328 kts 127°
2026-05-06 15:52 45.74282 15.83986 13883 ft 335 kts 103°
2026-05-06 15:53 45.74363 15.87317 13208 ft 340 kts 77°
2026-05-06 15:53 45.75438 15.90333 12665 ft 345 kts 51°
2026-05-06 15:53 45.77063 15.92859 12255 ft 345 kts 47°
2026-05-06 15:53 45.78708 15.95349 11868 ft 343 kts 47°
2026-05-06 15:54 45.80344 15.97825 11488 ft 341 kts 47°
2026-05-06 15:54 45.81964 16.00286 10955 ft 339 kts 47°
2026-05-06 15:54 45.83581 16.02745 10515 ft 337 kts 47°
2026-05-06 15:54 45.85182 16.05180 10095 ft 335 kts 47°
2026-05-06 15:55 45.86771 16.07597 9863 ft 328 kts 47°
2026-05-06 15:55 45.88314 16.09951 9668 ft 320 kts 47°
2026-05-06 15:55 45.89832 16.12266 9351 ft 317 kts 47°
2026-05-06 15:55 45.91338 16.14565 8964 ft 314 kts 47°
2026-05-06 15:56 45.92829 16.16840 8485 ft 312 kts 47°
2026-05-06 15:56 45.94312 16.19106 8009 ft 310 kts 47°
2026-05-06 15:56 45.95782 16.21362 7589 ft 307 kts 47°
2026-05-06 15:56 45.97204 16.23546 7445 ft 292 kts 47°
2026-05-06 15:57 45.98577 16.25651 7097 ft 287 kts 47°
2026-05-06 15:57 45.99787 16.27890 6690 ft 281 kts 66°
2026-05-06 15:57 46.00330 16.30491 6292 ft 272 kts 90°
2026-05-06 15:57 46.00155 16.33140 5843 ft 262 kts 113°
2026-05-06 15:58 45.99361 16.35418 5402 ft 251 kts 134°
2026-05-06 15:58 45.98139 16.37137 4911 ft 242 kts 152°
2026-05-06 15:58 45.96635 16.38044 4474 ft 230 kts 176°
2026-05-06 15:58 45.95107 16.37874 4252 ft 213 kts 202°
2026-05-06 15:59 45.93883 16.36829 4027 ft 202 kts 225°
2026-05-06 15:59 45.92925 16.35373 3691 ft 201 kts 227°
2026-05-06 15:59 45.91976 16.33912 3545 ft 198 kts 226°
2026-05-06 15:59 45.91050 16.32487 3418 ft 191 kts 226°
2026-05-06 16:00 45.90160 16.31119 3304 ft 184 kts 225°
2026-05-06 16:00 45.89312 16.29818 3196 ft 173 kts 227°
2026-05-06 16:00 45.88515 16.28598 3095 ft 161 kts 226°
2026-05-06 16:00 45.87785 16.27480 3042 ft 147 kts 225°
2026-05-06 16:01 45.87106 16.26441 3006 ft 141 kts 227°
2026-05-06 16:01 45.86440 16.25423 3000 ft 139 kts 226°
2026-05-06 16:01 45.85779 16.24412 3006 ft 138 kts 227°
2026-05-06 16:01 45.85119 16.23402 3005 ft 138 kts 226°
2026-05-06 16:02 45.84462 16.22398 3004 ft 138 kts 226°
2026-05-06 16:02 45.83804 16.21391 3007 ft 138 kts 226°
2026-05-06 16:02 45.83145 16.20385 2856 ft 140 kts 227°
2026-05-06 16:02 45.82483 16.19374 2544 ft 138 kts 226°
2026-05-06 16:03 45.81829 16.18374 2323 ft 138 kts 225°
2026-05-06 16:03 45.81180 16.17383 2113 ft 135 kts 226°
2026-05-06 16:03 45.80529 16.16388 1913 ft 137 kts 226°
2026-05-06 16:03 45.79879 16.15396 1740 ft 137 kts 226°
2026-05-06 16:04 45.79231 16.14407 1563 ft 136 kts 226°
2026-05-06 16:04 45.78583 16.13418 1377 ft 137 kts 226°
2026-05-06 16:04 45.77926 16.12418 1198 ft 138 kts 226°
2026-05-06 16:04 45.77272 16.11422 1017 ft 136 kts 226°
2026-05-06 16:05 45.76616 16.10425 806 ft 139 kts 226°
2026-05-06 16:05 45.75968 16.09441 628 ft 134 kts 227°
2026-05-06 16:05 45.75336 16.08464 447 ft 134 kts 225°
2026-05-06 16:05 45.74729 16.07539 370 ft 116 kts 226°
2026-05-06 16:06 45.74179 16.06703 562 ft 126 kts 225°
2026-05-06 16:06 45.73539 16.05739 905 ft 138 kts 225°
2026-05-06 16:06 45.72848 16.04719 1346 ft 147 kts 226°
2026-05-06 16:06 45.72109 16.03633 1721 ft 163 kts 225°
2026-05-06 16:07 45.71266 16.02404 2034 ft 188 kts 226°
2026-05-06 16:07 45.70616 16.00709 2524 ft 205 kts 258°
2026-05-06 16:07 45.70777 15.98649 2931 ft 216 kts 290°
2026-05-06 16:07 45.71702 15.96911 3376 ft 226 kts 311°
2026-05-06 16:08 45.72891 15.95431 4278 ft 227 kts 314°
2026-05-06 16:08 45.74114 15.93991 5110 ft 229 kts 315°
2026-05-06 16:08 45.75421 15.92639 5913 ft 239 kts 330°
2026-05-06 16:08 45.77089 15.92198 6663 ft 254 kts
2026-05-06 16:09 45.78798 15.92947 6945 ft 261 kts 31°
2026-05-06 16:09 45.80202 15.94591 7011 ft 261 kts 43°
2026-05-06 16:09 45.81501 15.96411 7008 ft 261 kts 45°
2026-05-06 16:09 45.82791 15.98246 7009 ft 261 kts 45°
2026-05-06 16:10 45.84076 16.00080 7007 ft 261 kts 45°
2026-05-06 16:10 45.85345 16.01900 7010 ft 261 kts 45°
2026-05-06 16:10 45.86624 16.03738 6972 ft 259 kts 45°
2026-05-06 16:10 45.87906 16.05570 6684 ft 260 kts 45°
2026-05-06 16:11 45.89184 16.07400 6454 ft 258 kts 45°
2026-05-06 16:11 45.90443 16.09223 6161 ft 257 kts 45°
2026-05-06 16:11 45.91703 16.11055 5877 ft 258 kts 45°
2026-05-06 16:11 45.92963 16.12885 5616 ft 256 kts 45°
2026-05-06 16:12 45.94218 16.14695 5349 ft 255 kts 45°
2026-05-06 16:12 45.95469 16.16501 5048 ft 255 kts 45°
2026-05-06 16:12 45.96720 16.18309 4793 ft 255 kts 45°
2026-05-06 16:12 45.97944 16.20121 4559 ft 251 kts 51°
2026-05-06 16:13 45.98546 16.21537 4375 ft 249 kts 71°
2026-05-06 16:13 45.98858 16.23928 4115 ft 241 kts 98°
2026-05-06 16:13 45.98191 16.26822 3800 ft 225 kts 131°
2026-05-06 16:13 45.97104 16.28351 3548 ft 215 kts 153°
2026-05-06 16:14 45.95744 16.29139 3308 ft 208 kts 174°
2026-05-06 16:14 45.94780 16.29235 3153 ft 204 kts 187°
2026-05-06 16:14 45.93432 16.28782 3032 ft 196 kts 201°
2026-05-06 16:14 45.92176 16.28141 2992 ft 186 kts 201°
2026-05-06 16:15 45.91010 16.27557 2994 ft 177 kts 201°
2026-05-06 16:15 45.89859 16.26982 3022 ft 173 kts 202°
2026-05-06 16:15 45.88724 16.26413 3014 ft 173 kts 201°
2026-05-06 16:15 45.87607 16.25852 3002 ft 166 kts 201°
2026-05-06 16:16 45.86557 16.25254 2991 ft 160 kts 214°
2026-05-06 16:16 45.85729 16.24204 3008 ft 159 kts 224°
2026-05-06 16:16 45.84947 16.23088 2993 ft 160 kts 225°
2026-05-06 16:16 45.84178 16.21945 2873 ft 158 kts 226°
2026-05-06 16:17 45.83417 16.20794 2700 ft 159 kts 225°
2026-05-06 16:17 45.82664 16.19647 2511 ft 159 kts 227°
2026-05-06 16:17 45.81920 16.18511 2301 ft 151 kts 225°
2026-05-06 16:17 45.81220 16.17442 2099 ft 143 kts 225°
2026-05-06 16:18 45.80561 16.16435 1908 ft 138 kts 226°
2026-05-06 16:18 45.79909 16.15441 1739 ft 136 kts 226°
2026-05-06 16:18 45.79262 16.14453 1563 ft 135 kts 226°
2026-05-06 16:18 45.78618 16.13472 1375 ft 135 kts 227°
2026-05-06 16:19 45.77970 16.12491 1188 ft 134 kts 226°
2026-05-06 16:19 45.77324 16.11502 1066 ft 135 kts 226°
2026-05-06 16:19 45.76682 16.10520 814 ft 136 kts 225°
2026-05-06 16:19 45.76037 16.09541 627 ft 134 kts 226°
2026-05-06 16:20 45.75405 16.08571 447 ft 133 kts 225°
2026-05-06 16:20 45.74796 16.07642 364 ft 116 kts 226°
2026-05-06 16:20 45.74347 16.06960 364 ft 69 kts 226°
2026-05-06 16:20 45.74118 16.06609 361 ft 38 kts 227°
2026-05-06 16:21 45.73953 16.06356 367 ft 31 kts 226°
2026-05-06 16:21 45.73856 16.06264 364 ft 15 kts 174°
2026-05-06 16:21 45.73765 16.06365 361 ft 19 kts 133°
2026-05-06 16:21 45.73777 16.06483 360 ft 10 kts 48°
2026-05-06 16:22 45.73827 16.06562 366 ft 14 kts 46°
2026-05-06 16:22 45.73922 16.06705 359 ft 25 kts 46°
2026-05-06 16:22 45.74050 16.06897 359 ft 27 kts 47°
2026-05-06 16:22 45.74175 16.07087 363 ft 25 kts 47°
2026-05-06 16:23 45.74187 16.07238 365 ft 17 kts 128°
2026-05-06 16:23 45.74091 16.07371 360 ft 22 kts 137°
2026-05-06 16:23 45.74107 16.07534 358 ft 17 kts 46°
2026-05-06 16:23 45.74164 16.07633 357 ft 9 kts 76°
2026-05-06 16:24 45.74150 16.07678 358 ft 0 kts 121°
2026-05-06 16:24 45.74142 16.07697 363 ft 3 kts 122°
2026-05-06 16:24 45.74137 16.07709 362 ft 6 kts 122°
2026-05-06 16:24 45.74135 16.07712 362 ft 0 kts 122°